PIA308 OPKC-OPIS

Flight info

Callsign PIA308
Flight time 1h 30m
Altitude 37000
Route BADUL B466 NH Z301 BELKO
Aircraft B772/H-SDE2E3FGHIJ5LORVWXY/LB1D1

Departure

Time 2026-04-25 10:30
Airport Jinnah International Airport (OPKC)

Arrival

Time 2026-04-25 12:01
Airport Islamabad International Airport (OPIS)
Time Latitude Longitude Altitude Speed Heading
2026-04-25 07:29 24.90241 67.16579 105 ft 0 kts 164°
2026-04-25 10:18 24.90259 67.16573 105 ft 4 kts 169°
2026-04-25 10:19 24.90285 67.16569 105 ft 4 kts 167°
2026-04-25 10:19 24.90306 67.16560 105 ft 3 kts 131°
2026-04-25 10:19 24.90318 67.16542 105 ft 4 kts 101°
2026-04-25 10:19 24.90317 67.16516 105 ft 4 kts 75°
2026-04-25 10:20 24.90313 67.16498 104 ft 1 kts 74°
2026-04-25 10:20 24.90312 67.16495 104 ft 0 kts 74°
2026-04-25 10:23 24.90313 67.16498 106 ft 2 kts 74°
2026-04-25 10:23 24.90319 67.16522 106 ft 5 kts 74°
2026-04-25 10:24 24.90331 67.16569 107 ft 8 kts 74°
2026-04-25 10:24 24.90349 67.16637 107 ft 11 kts 74°
2026-04-25 10:24 24.90371 67.16728 107 ft 14 kts 75°
2026-04-25 10:24 24.90398 67.16838 107 ft 16 kts 75°
2026-04-25 10:25 24.90421 67.16931 106 ft 14 kts 75°
2026-04-25 10:25 24.90446 67.17026 107 ft 8 kts 63°
2026-04-25 10:25 24.90487 67.17046 107 ft 7 kts 354°
2026-04-25 10:25 24.90543 67.17028 107 ft 7 kts 349°
2026-04-25 10:26 24.90563 67.17039 108 ft 3 kts 45°
2026-04-25 10:26 24.90571 67.17066 108 ft 5 kts 73°
2026-04-25 10:26 24.90583 67.17108 108 ft 7 kts 73°
2026-04-25 10:26 24.90599 67.17170 107 ft 10 kts 75°
2026-04-25 10:27 24.90617 67.17253 107 ft 13 kts 75°
2026-04-25 10:27 24.90643 67.17357 109 ft 15 kts 74°
2026-04-25 10:27 24.90682 67.17478 108 ft 18 kts 60°
2026-04-25 10:27 24.90773 67.17587 107 ft 20 kts 44°
2026-04-25 10:28 24.90882 67.17702 108 ft 23 kts 44°
2026-04-25 10:28 24.90990 67.17817 109 ft 20 kts 44°
2026-04-25 10:28 24.91075 67.17865 108 ft 13 kts 358°
2026-04-25 10:28 24.91158 67.17838 108 ft 4 kts 340°
2026-04-25 10:29 24.91181 67.17828 108 ft 4 kts 335°
2026-04-25 10:29 24.91202 67.17809 109 ft 4 kts 318°
2026-04-25 10:29 24.91229 67.17775 109 ft 7 kts 296°
2026-04-25 10:29 24.91227 67.17735 109 ft 0 kts 255°
2026-04-25 10:30 24.91217 67.17693 108 ft 23 kts 254°
2026-04-25 10:30 24.91085 67.17175 110 ft 119 kts 255°
2026-04-25 10:30 24.90785 67.16004 322 ft 183 kts 253°
2026-04-25 10:30 24.90436 67.14659 1378 ft 192 kts 254°
2026-04-25 10:31 24.90110 67.13182 2327 ft 201 kts 265°
2026-04-25 10:31 24.90494 67.11644 2828 ft 223 kts 308°
2026-04-25 10:31 24.91825 67.10816 3803 ft 226 kts 350°
2026-04-25 10:31 24.93377 67.11119 4801 ft 235 kts 23°
2026-04-25 10:32 24.94691 67.12232 5547 ft 248 kts 44°
2026-04-25 10:32 24.95874 67.13670 6346 ft 256 kts 47°
2026-04-25 10:32 24.97067 67.15174 7195 ft 261 kts 48°
2026-04-25 10:32 24.98270 67.16700 8050 ft 266 kts 48°
2026-04-25 10:33 24.99496 67.18245 8866 ft 269 kts 48°
2026-04-25 10:33 25.00740 67.19807 9700 ft 272 kts 48°
2026-04-25 10:33 25.01997 67.21381 10442 ft 274 kts 48°
2026-04-25 10:33 25.03258 67.22955 11249 ft 278 kts 48°
2026-04-25 10:34 25.04547 67.24562 12246 ft 280 kts 48°
2026-04-25 10:34 25.05855 67.26189 13258 ft 288 kts 48°
2026-04-25 10:34 25.07232 67.27900 13895 ft 311 kts 48°
2026-04-25 10:34 25.08752 67.29787 14132 ft 346 kts 48°
2026-04-25 10:35 25.10432 67.31874 14379 ft 379 kts 48°
2026-04-25 10:35 25.12199 67.34071 15111 ft 392 kts 47°
2026-04-25 10:35 25.14031 67.36349 16029 ft 399 kts 47°
2026-04-25 10:35 25.15888 67.38657 17002 ft 405 kts 47°
2026-04-25 10:36 25.17772 67.41006 17918 ft 411 kts 47°
2026-04-25 10:36 25.19694 67.43400 18709 ft 417 kts 47°
2026-04-25 10:36 25.21628 67.45809 19489 ft 421 kts 47°
2026-04-25 10:36 25.23645 67.48122 20277 ft 424 kts 41°
2026-04-25 10:37 25.25900 67.50256 21024 ft 428 kts 38°
2026-04-25 10:37 25.28217 67.52355 21757 ft 433 kts 37°
2026-04-25 10:37 25.30570 67.54465 22489 ft 438 kts 37°
2026-04-25 10:37 25.32954 67.56610 23170 ft 443 kts 37°
2026-04-25 10:38 25.35325 67.58754 23771 ft 448 kts 38°
2026-04-25 10:38 25.37751 67.60959 24366 ft 451 kts 38°
2026-04-25 10:38 25.40184 67.63178 24995 ft 455 kts 38°
2026-04-25 10:38 25.42636 67.65420 25638 ft 457 kts 38°
2026-04-25 10:39 25.45095 67.67674 26264 ft 461 kts 38°
2026-04-25 10:39 25.47578 67.69952 26863 ft 465 kts 38°
2026-04-25 10:39 25.50052 67.72225 27441 ft 469 kts 38°
2026-04-25 10:39 25.52577 67.74542 28046 ft 473 kts 38°
2026-04-25 10:40 25.55127 67.76883 28618 ft 477 kts 38°
2026-04-25 10:40 25.57693 67.79240 29164 ft 481 kts 38°
2026-04-25 10:40 25.60288 67.81625 29688 ft 485 kts 38°
2026-04-25 10:40 25.62873 67.84003 30147 ft 489 kts 38°
2026-04-25 10:41 25.65501 67.86422 30602 ft 491 kts 38°
2026-04-25 10:41 25.68132 67.88846 31057 ft 492 kts 38°
2026-04-25 10:41 25.70771 67.91278 31506 ft 493 kts 38°
2026-04-25 10:41 25.73409 67.93711 32045 ft 492 kts 38°
2026-04-25 10:42 25.76035 67.96135 32655 ft 489 kts 38°
2026-04-25 10:42 25.78624 67.98525 33299 ft 486 kts 38°
2026-04-25 10:42 25.81235 68.00937 33942 ft 482 kts 38°
2026-04-25 10:42 25.83812 68.03320 34458 ft 481 kts 37°
2026-04-25 10:43 25.86362 68.05677 34912 ft 481 kts 37°
2026-04-25 10:43 25.88933 68.08055 35382 ft 481 kts 37°
2026-04-25 10:43 25.91507 68.10437 35879 ft 480 kts 37°
2026-04-25 10:43 25.94068 68.12810 36363 ft 479 kts 37°
2026-04-25 10:44 25.96630 68.15185 36825 ft 478 kts 37°
2026-04-25 10:44 25.99154 68.17526 37294 ft 478 kts 36°
2026-04-25 10:44 26.01707 68.19895 37758 ft 477 kts 36°
2026-04-25 10:44 26.04254 68.22260 38215 ft 477 kts 36°
2026-04-25 10:45 26.06804 68.24629 38589 ft 477 kts 36°
2026-04-25 10:45 26.09356 68.27001 38869 ft 479 kts 36°
2026-04-25 10:45 26.11920 68.29386 39151 ft 481 kts 36°
2026-04-25 10:45 26.14493 68.31781 39433 ft 482 kts 36°
2026-04-25 10:46 26.17068 68.34180 39724 ft 483 kts 36°
2026-04-25 10:46 26.19651 68.36579 40003 ft 483 kts 35°
2026-04-25 10:46 26.22342 68.38806 40277 ft 481 kts 30°
2026-04-25 10:46 26.25179 68.40703 40550 ft 479 kts 24°
2026-04-25 10:47 26.28139 68.42458 40643 ft 483 kts 24°
2026-04-25 10:47 26.34148 68.45944 40726 ft 486 kts 24°
2026-04-25 10:48 26.40051 68.49426 40722 ft 478 kts 24°
2026-04-25 10:48 26.45934 68.52937 40725 ft 479 kts 24°
2026-04-25 10:49 26.51797 68.56447 40706 ft 480 kts 24°
2026-04-25 10:49 26.57699 68.59982 40726 ft 480 kts 24°
2026-04-25 10:50 26.63595 68.63515 40724 ft 481 kts 24°
2026-04-25 10:50 26.69474 68.67023 40716 ft 481 kts 24°
2026-04-25 10:51 26.75386 68.70545 40721 ft 481 kts 24°
2026-04-25 10:51 26.81299 68.74075 40721 ft 481 kts 24°
2026-04-25 10:52 26.87214 68.77612 40720 ft 481 kts 24°
2026-04-25 10:52 26.93131 68.81156 40723 ft 481 kts 24°
2026-04-25 10:53 26.99011 68.84682 40725 ft 481 kts 24°
2026-04-25 10:53 27.04916 68.88227 40720 ft 480 kts 24°
2026-04-25 10:54 27.10773 68.91746 40723 ft 480 kts 24°
2026-04-25 10:54 27.16666 68.95293 40729 ft 479 kts 24°
2026-04-25 10:55 27.22558 68.98843 40723 ft 479 kts 24°
2026-04-25 10:55 27.28396 69.02365 40729 ft 479 kts 24°
2026-04-25 10:56 27.34263 69.05909 40732 ft 478 kts 24°
2026-04-25 10:56 27.40134 69.09458 40739 ft 478 kts 24°
2026-04-25 10:57 27.46000 69.13003 40737 ft 478 kts 24°
2026-04-25 10:57 27.51815 69.16519 40744 ft 477 kts 24°
2026-04-25 10:58 27.57670 69.20065 40752 ft 477 kts 24°
2026-04-25 10:58 27.63528 69.23618 40749 ft 477 kts 24°
2026-04-25 10:59 27.69387 69.27176 40758 ft 477 kts 24°
2026-04-25 10:59 27.75203 69.30713 40762 ft 477 kts 24°
2026-04-25 11:00 27.81056 69.34276 40759 ft 477 kts 24°
2026-04-25 11:00 27.86882 69.37827 40769 ft 477 kts 24°
2026-04-25 11:01 27.92723 69.41392 40771 ft 477 kts 24°
2026-04-25 11:01 27.98589 69.44976 40780 ft 477 kts 24°
2026-04-25 11:02 28.04394 69.48527 40776 ft 477 kts 24°
2026-04-25 11:02 28.09275 69.51517 40780 ft 477 kts 24°
2026-04-25 11:03 28.15120 69.55102 40783 ft 477 kts 24°
2026-04-25 11:03 28.20960 69.58687 40784 ft 477 kts 24°
2026-04-25 11:04 28.26812 69.62285 40784 ft 477 kts 24°
2026-04-25 11:04 28.32660 69.65885 40795 ft 477 kts 25°
2026-04-25 11:05 28.38497 69.69482 40795 ft 477 kts 25°
2026-04-25 11:05 28.44308 69.73068 40789 ft 477 kts 25°
2026-04-25 11:06 28.50161 69.76685 40793 ft 477 kts 25°
2026-04-25 11:06 28.55978 69.80272 40800 ft 477 kts 24°
2026-04-25 11:07 28.61866 69.83814 40806 ft 477 kts 24°
2026-04-25 11:07 28.67760 69.87342 40797 ft 478 kts 24°
2026-04-25 11:08 28.73613 69.90860 40805 ft 478 kts 24°
2026-04-25 11:08 28.79508 69.94417 40804 ft 479 kts 24°
2026-04-25 11:09 28.85413 69.97987 40802 ft 480 kts 24°
2026-04-25 11:09 28.91277 70.01536 40804 ft 480 kts 24°
2026-04-25 11:10 28.97201 70.05126 40801 ft 481 kts 24°
2026-04-25 11:10 29.03114 70.08714 40792 ft 482 kts 24°
2026-04-25 11:11 29.09042 70.12315 40797 ft 482 kts 24°
2026-04-25 11:11 29.14950 70.15910 40799 ft 483 kts 24°
2026-04-25 11:12 29.20900 70.19534 40802 ft 484 kts 24°
2026-04-25 11:12 29.26863 70.23171 40799 ft 485 kts 24°
2026-04-25 11:13 29.32784 70.26787 40800 ft 486 kts 24°
2026-04-25 11:13 29.38758 70.30441 40808 ft 486 kts 24°
2026-04-25 11:14 29.44738 70.34103 40808 ft 487 kts 24°
2026-04-25 11:14 29.50738 70.37781 40783 ft 491 kts 24°
2026-04-25 11:15 29.56792 70.41496 40798 ft 498 kts 24°
2026-04-25 11:15 29.62914 70.45263 40817 ft 499 kts 24°
2026-04-25 11:16 29.72118 70.50935 40811 ft 500 kts 24°
2026-04-25 11:16 29.78207 70.54693 40807 ft 499 kts 24°
2026-04-25 11:17 29.84312 70.58466 40809 ft 497 kts 24°
2026-04-25 11:17 29.90392 70.62229 40808 ft 495 kts 24°
2026-04-25 11:18 29.96464 70.65991 40810 ft 494 kts 24°
2026-04-25 11:18 30.02489 70.69729 40808 ft 494 kts 24°
2026-04-25 11:19 30.08555 70.73499 40810 ft 494 kts 24°
2026-04-25 11:19 30.14625 70.77277 40809 ft 495 kts 24°
2026-04-25 11:20 30.20693 70.81058 40815 ft 495 kts 24°
2026-04-25 11:20 30.26773 70.84702 40813 ft 494 kts 21°
2026-04-25 11:21 30.32975 70.88138 40814 ft 494 kts 21°
2026-04-25 11:21 30.39195 70.91579 40813 ft 495 kts 21°
2026-04-25 11:22 30.44361 70.94479 40804 ft 496 kts 21°
2026-04-25 11:22 30.51581 70.98564 40797 ft 496 kts 21°
2026-04-25 11:23 30.57804 71.02094 40802 ft 496 kts 21°
2026-04-25 11:23 30.63965 71.05590 40803 ft 496 kts 21°
2026-04-25 11:24 30.70176 71.09119 40803 ft 495 kts 21°
2026-04-25 11:24 30.76368 71.12641 40799 ft 494 kts 21°
2026-04-25 11:25 30.82507 71.16139 40798 ft 493 kts 21°
2026-04-25 11:25 30.88682 71.19661 40800 ft 493 kts 21°
2026-04-25 11:26 30.94847 71.23184 40798 ft 493 kts 21°
2026-04-25 11:26 31.00973 71.26690 40798 ft 493 kts 21°
2026-04-25 11:27 31.07141 71.30224 40804 ft 493 kts 21°
2026-04-25 11:27 31.12259 71.33160 40803 ft 493 kts 21°
2026-04-25 11:28 31.19418 71.37274 40801 ft 493 kts 21°
2026-04-25 11:28 31.25584 71.40825 40800 ft 492 kts 21°
2026-04-25 11:29 31.31741 71.44375 40806 ft 493 kts 21°
2026-04-25 11:29 31.37867 71.47912 40807 ft 493 kts 21°
2026-04-25 11:30 31.43994 71.51456 40807 ft 493 kts 21°
2026-04-25 11:30 31.50161 71.55028 40807 ft 493 kts 21°
2026-04-25 11:31 31.56330 71.58606 40794 ft 494 kts 21°
2026-04-25 11:31 31.62467 71.62171 40797 ft 494 kts 21°
2026-04-25 11:32 31.68636 71.65761 40803 ft 495 kts 21°
2026-04-25 11:32 31.74783 71.69347 40801 ft 495 kts 21°
2026-04-25 11:33 31.80960 71.72955 40800 ft 495 kts 21°
2026-04-25 11:33 31.87143 71.76573 40805 ft 496 kts 21°
2026-04-25 11:34 31.93289 71.80173 40804 ft 496 kts 21°
2026-04-25 11:34 31.99476 71.83804 40802 ft 496 kts 21°
2026-04-25 11:35 32.05667 71.87442 40806 ft 497 kts 21°
2026-04-25 11:35 32.11819 71.91063 40805 ft 497 kts 21°
2026-04-25 11:36 32.18014 71.94714 40808 ft 497 kts 21°
2026-04-25 11:36 32.24211 71.98373 40808 ft 497 kts 21°
2026-04-25 11:37 32.30410 72.02039 40815 ft 497 kts 21°
2026-04-25 11:37 32.36567 72.05685 40826 ft 498 kts 21°
2026-04-25 11:38 32.42780 72.09370 40859 ft 498 kts 21°
2026-04-25 11:38 32.48846 72.13424 40846 ft 504 kts 30°
2026-04-25 11:39 32.54516 72.18365 40859 ft 506 kts 32°
2026-04-25 11:39 32.59977 72.23454 40337 ft 498 kts 38°
2026-04-25 11:40 32.62524 72.26254 39574 ft 500 kts 39°
2026-04-25 11:40 32.65035 72.29123 38752 ft 502 kts 40°
2026-04-25 11:40 32.67543 72.32027 37811 ft 503 kts 40°
2026-04-25 11:40 32.70061 72.34938 36677 ft 507 kts 40°
2026-04-25 11:41 32.72608 72.37862 35489 ft 512 kts 40°
2026-04-25 11:41 32.75194 72.40813 34315 ft 517 kts 40°
2026-04-25 11:41 32.77805 72.43779 33016 ft 521 kts 40°
2026-04-25 11:41 32.80405 72.46729 31692 ft 524 kts 40°
2026-04-25 11:42 32.83054 72.49735 30372 ft 526 kts 40°
2026-04-25 11:42 32.85707 72.52746 29171 ft 525 kts 40°
2026-04-25 11:42 32.88304 72.55704 28323 ft 504 kts 40°
2026-04-25 11:42 32.90778 72.58533 27350 ft 481 kts 40°
2026-04-25 11:43 32.93153 72.61250 26190 ft 466 kts 39°
2026-04-25 11:43 32.95443 72.63863 24955 ft 456 kts 39°
2026-04-25 11:43 32.97716 72.66453 23707 ft 448 kts 39°
2026-04-25 11:43 32.99952 72.69000 22413 ft 448 kts 40°
2026-04-25 11:44 33.02209 72.71570 21597 ft 445 kts 40°
2026-04-25 11:44 33.04438 72.74116 21033 ft 437 kts 40°
2026-04-25 11:44 33.06608 72.76600 20529 ft 429 kts 40°
2026-04-25 11:44 33.08722 72.79022 19969 ft 424 kts 40°
2026-04-25 11:45 33.10842 72.81452 19388 ft 421 kts 41°
2026-04-25 11:45 33.12944 72.83861 18899 ft 416 kts 41°
2026-04-25 11:45 33.14998 72.86221 18788 ft 402 kts 41°
2026-04-25 11:45 33.16979 72.88499 18717 ft 388 kts 41°
2026-04-25 11:46 33.18895 72.90703 18605 ft 376 kts 41°
2026-04-25 11:46 33.20776 72.92866 18199 ft 373 kts 41°
2026-04-25 11:46 33.22624 72.94989 17678 ft 372 kts 41°
2026-04-25 11:46 33.24482 72.97126 17195 ft 370 kts 41°
2026-04-25 11:47 33.26329 72.99254 16683 ft 368 kts 41°
2026-04-25 11:47 33.28165 73.01370 16200 ft 364 kts 41°
2026-04-25 11:47 33.29945 73.03425 15688 ft 348 kts 41°
2026-04-25 11:47 33.31632 73.05374 15105 ft 336 kts 41°
2026-04-25 11:48 33.33149 73.07448 14504 ft 329 kts 57°
2026-04-25 11:48 33.34020 73.09946 13937 ft 322 kts 72°
2026-04-25 11:48 33.34603 73.12517 13332 ft 316 kts 75°
2026-04-25 11:48 33.35123 73.15050 12708 ft 316 kts 75°
2026-04-25 11:49 33.35645 73.17632 12112 ft 322 kts 75°
2026-04-25 11:49 33.36171 73.20260 11509 ft 327 kts 76°
2026-04-25 11:49 33.36702 73.22931 10922 ft 332 kts 75°
2026-04-25 11:49 33.37184 73.25583 10433 ft 327 kts 82°
2026-04-25 11:50 33.37100 73.28282 9963 ft 326 kts 98°
2026-04-25 11:50 33.36688 73.30948 9499 ft 326 kts 102°
2026-04-25 11:50 33.36293 73.33597 8977 ft 317 kts 91°
2026-04-25 11:50 33.36744 73.36127 8473 ft 310 kts 60°
2026-04-25 11:51 33.38130 73.37952 8024 ft 289 kts 30°
2026-04-25 11:51 33.39916 73.38866 7626 ft 272 kts 12°
2026-04-25 11:51 33.41124 73.39142 7356 ft 263 kts
2026-04-25 11:51 33.43479 73.38929 6825 ft 250 kts 341°
2026-04-25 11:52 33.44545 73.38407 6566 ft 251 kts 329°
2026-04-25 11:52 33.45943 73.37133 6196 ft 254 kts 314°
2026-04-25 11:52 33.47353 73.34901 5764 ft 252 kts 294°
2026-04-25 11:52 33.47771 73.32907 5516 ft 243 kts 278°
2026-04-25 11:53 33.47932 73.31559 5368 ft 241 kts 278°
2026-04-25 11:53 33.48166 73.29614 5192 ft 235 kts 278°
2026-04-25 11:53 33.48405 73.27660 4955 ft 234 kts 278°
2026-04-25 11:53 33.48640 73.25771 4749 ft 229 kts 278°
2026-04-25 11:54 33.48876 73.23898 4605 ft 226 kts 278°
2026-04-25 11:54 33.49112 73.22044 4458 ft 225 kts 279°
2026-04-25 11:54 33.49586 73.18338 4158 ft 226 kts 279°
2026-04-25 11:55 33.49828 73.16463 4019 ft 228 kts 278°
2026-04-25 11:55 33.50066 73.14572 3871 ft 230 kts 279°
2026-04-25 11:55 33.50307 73.12710 3800 ft 220 kts 280°
2026-04-25 11:55 33.50565 73.10948 3742 ft 210 kts 282°
2026-04-25 11:56 33.50820 73.09297 3712 ft 198 kts 281°
2026-04-25 11:56 33.51079 73.07648 3733 ft 205 kts 282°
2026-04-25 11:56 33.51334 73.06006 3695 ft 196 kts 283°
2026-04-25 11:56 33.51590 73.04378 3710 ft 199 kts 282°
2026-04-25 11:57 33.51842 73.02775 3698 ft 193 kts 282°
2026-04-25 11:57 33.52091 73.01180 3695 ft 197 kts 283°
2026-04-25 11:57 33.52342 72.99594 3700 ft 192 kts 281°
2026-04-25 11:57 33.52573 72.98097 3698 ft 177 kts 282°
2026-04-25 11:58 33.52794 72.96674 3690 ft 171 kts 282°
2026-04-25 11:58 33.53011 72.95304 3500 ft 163 kts 281°
2026-04-25 11:58 33.53213 72.93998 3301 ft 156 kts 283°
2026-04-25 11:58 33.53408 72.92758 3133 ft 149 kts 282°
2026-04-25 11:59 33.53596 72.91557 2931 ft 145 kts 282°
2026-04-25 11:59 33.53774 72.90417 2772 ft 135 kts 284°
2026-04-25 11:59 33.53945 72.89324 2576 ft 132 kts 284°
2026-04-25 12:00 33.54287 72.87137 2234 ft 135 kts 282°
2026-04-25 12:00 33.54458 72.86016 2048 ft 130 kts 282°
2026-04-25 12:00 33.54798 72.83897 1772 ft 127 kts 279°
2026-04-25 12:01 33.54936 72.82981 1770 ft 95 kts 281°
2026-04-25 12:01 33.55036 72.82356 1767 ft 59 kts 281°
2026-04-25 12:01 33.55091 72.82005 1767 ft 32 kts 281°
2026-04-25 12:01 33.55129 72.81760 1764 ft 30 kts 279°
2026-04-25 12:02 33.55200 72.81598 1766 ft 9 kts
2026-04-25 12:02 33.55263 72.81612 1769 ft 9 kts 11°
2026-04-25 12:02 33.55323 72.81635 1774 ft 9 kts 42°
2026-04-25 12:03 33.55327 72.81713 1772 ft 10 kts 99°
2026-04-25 12:03 33.55315 72.81797 1774 ft 10 kts 100°
2026-04-25 12:03 33.55303 72.81886 1774 ft 11 kts 100°
2026-04-25 12:03 33.55288 72.81980 1775 ft 12 kts 100°
2026-04-25 12:04 33.55273 72.82079 1774 ft 12 kts 100°
2026-04-25 12:04 33.55258 72.82180 1774 ft 12 kts 100°
2026-04-25 12:04 33.55242 72.82280 1776 ft 12 kts 101°
2026-04-25 12:04 33.55226 72.82381 1774 ft 12 kts 101°
2026-04-25 12:05 33.55210 72.82482 1776 ft 12 kts 101°
2026-04-25 12:05 33.55215 72.82580 1776 ft 12 kts 50°
2026-04-25 12:05 33.55298 72.82610 1776 ft 13 kts
2026-04-25 12:05 33.55384 72.82630 1776 ft 13 kts 21°
2026-04-25 12:06 33.55445 72.82708 1778 ft 13 kts 54°
2026-04-25 12:06 33.55472 72.82776 1776 ft 6 kts 105°
2026-04-25 12:06 33.55439 72.82808 1779 ft 7 kts 145°
2026-04-25 12:06 33.55413 72.82830 1778 ft 4 kts 145°
2026-04-25 12:07 33.55407 72.82835 1776 ft 0 kts 145°
2026-04-25 12:07 33.55407 72.82836 1776 ft 0 kts 145°